Starlink 5227

operational
NORAD ID: 54181 Int'l Des: 2022-141 Owner: SPXS Country: US Constellation: starlink
LEOCIRCULAR

About Starlink 5227

Description loading...

Live Position

Loading 3D Globe...

Upcoming Passes

Altitude History

Altitude vs Time

uPlot chart will show altitude changes over time

Two-Line Element Set

1 54181U 22141AA 25341.23754070 .00000836 00000-0 70657-4 0 9998
2 54181 53.2194 58.9288 0001978 96.2682 263.8536 15.08834355171906
Epoch: Dec 7, 2025 • Age: 20 hours

Current Status

Altitude 547.1 km
Velocity 7.59 km/s
Sub-Earth Point -23.68°S, 151.58°E
Launch Date Oct 28, 2022
Age 3.1 years
Type internet

Technical Details

Classification Payload
Mass 305.00 kg
Dry Mass 290.00 kg
Total Mass 305.00 kg
Length 0.20 m
Diameter 2.80 m
Span 9.00 m
Shape Box + pan
Manufacturer SPXS
Bus Type Starlink
Phase Status In Orbit
Owner/State SPXS/US

Large Constellations

Loading constellations...